TimeEST,TemperatureF,Dew PointF,Humidity,Sea Level PressureIn,VisibilityMPH,Wind Direction,Wind SpeedMPH,Gust SpeedMPH,PrecipitationIn,Events,Conditions,WindDirDegrees,DateUTC
12:53 AM,32.0,28.9,88,30.33,10.0,NE,4.6,-,N/A,,Partly Cloudy,40,2011-11-21 05:53:00
1:53 AM,33.1,27.0,78,30.31,10.0,NNE,6.9,-,N/A,,Clear,30,2011-11-21 06:53:00
2:53 AM,33.1,27.0,78,30.32,10.0,NNE,3.5,-,N/A,,Clear,30,2011-11-21 07:53:00
3:53 AM,32.0,26.1,79,30.33,10.0,Calm,Calm,-,N/A,,Clear,0,2011-11-21 08:53:00
4:53 AM,30.9,27.0,85,30.33,10.0,NNE,5.8,-,N/A,,Partly Cloudy,30,2011-11-21 09:53:00
5:53 AM,32.0,27.0,82,30.35,10.0,NNE,5.8,-,N/A,,Clear,30,2011-11-21 10:53:00
6:10 AM,32.0,26.6,80,30.32,10.0,NE,4.6,-,N/A,,Mostly Cloudy,40,2011-11-21 11:10:00
6:53 AM,30.9,26.1,82,30.35,10.0,NE,3.5,-,N/A,,Scattered Clouds,50,2011-11-21 11:53:00
7:53 AM,30.0,26.1,85,30.37,10.0,Calm,Calm,-,N/A,,Mostly Cloudy,0,2011-11-21 12:53:00
8:53 AM,32.0,27.0,82,30.39,10.0,NE,4.6,-,N/A,,Mostly Cloudy,50,2011-11-21 13:53:00
9:53 AM,35.1,28.0,76,30.39,10.0,East,3.5,-,N/A,,Mostly Cloudy,80,2011-11-21 14:53:00
10:53 AM,36.0,28.0,73,30.38,10.0,ENE,6.9,-,N/A,,Mostly Cloudy,60,2011-11-21 15:53:00
11:53 AM,37.9,28.0,68,30.35,10.0,SE,6.9,-,N/A,,Scattered Clouds,130,2011-11-21 16:53:00
12:53 PM,39.0,28.9,67,30.34,10.0,ESE,3.5,-,N/A,,Scattered Clouds,120,2011-11-21 17:53:00
1:53 PM,41.0,28.0,60,30.32,10.0,North,3.5,-,N/A,,Scattered Clouds,10,2011-11-21 18:53:00
2:53 PM,42.1,28.9,60,30.30,10.0,Calm,Calm,-,N/A,,Scattered Clouds,0,2011-11-21 19:53:00
3:53 PM,42.1,28.0,58,30.30,10.0,East,5.8,-,N/A,,Partly Cloudy,80,2011-11-21 20:53:00
4:53 PM,39.9,28.0,63,30.30,10.0,East,3.5,-,N/A,,Mostly Cloudy,90,2011-11-21 21:53:00
5:53 PM,37.9,28.0,68,30.32,10.0,East,4.6,-,N/A,,Mostly Cloudy,90,2011-11-21 22:53:00
6:53 PM,36.0,28.0,73,30.32,10.0,East,3.5,-,N/A,,Mostly Cloudy,80,2011-11-21 23:53:00
7:53 PM,33.8,26.6,75,30.29,10.0,East,4.6,-,N/A,,Mostly Cloudy,90,2011-11-22 00:53:00
8:53 PM,33.1,27.0,78,30.32,10.0,East,4.6,-,N/A,,Scattered Clouds,90,2011-11-22 01:53:00
9:53 PM,32.0,26.1,79,30.31,10.0,East,3.5,-,N/A,,Mostly Cloudy,90,2011-11-22 02:53:00
10:53 PM,32.0,27.0,82,30.28,10.0,East,4.6,-,N/A,,Scattered Clouds,80,2011-11-22 03:53:00
11:53 PM,32.0,26.1,79,30.30,10.0,East,3.5,-,N/A,,Mostly Cloudy,100,2011-11-22 04:53:00